ATLAS D DEB, 2337

Orbit data source: Space-Track

ATLAS D DEB, 2337 is space debris in LEO originally from a launch on Thu, 14 Jul 1966 UTC launched from the Air Force Western Test Range (AFWTR). Debris objects in space refer to the collection of defunct objects orbiting the Earth. Examples of debris include non-operational satellites, rocket bodies, and fragments generated from explosions, collisions, or faulty payload assembly.

Loading next visibility...
Identifier
2337, 1966-063E
Orbit
LEO
Country
Flag of USUS
Related business
Manufacturer
Unknown
Mission
Spacecraft
Bus & Motor
Unknown
Mass
9 kg wet, 9 kg dry
Launch date (UTC)
1966-07-14 (60 years ago)
Launch vehicle
Unknown
Launch site
Air Force Western Test Range (AFWTR)
Object type
Payload
Rocket body
Debris
Shape & HBR
Unknown
Radar Cross Section
Medium (>0.1 m² and <1 m²)

Expand to show TLE details & history
Last TLE update: 10 hours ago

TLE from 10 hours ago
0 ATLAS D DEB
1  2337U 66063E   26061.82212965  .00000389  00000-0  15155-3 0  9996
2  2337 144.2328  29.8174 0005281   0.8883  30.0567 13.72273497987454
Epoch: 2026-03-02T19:43Z
TLE epoch observation values (Epoch: 2026-03-02T19:43:52.001Z)
Latitude
17.56552°
Longitude
-92.68239°
Altitude
986.53 km
Speed
7.363 km/s
True Right ascension
00h 15m 34s
True Declination
17° 28' 12"
Sunlit
Object was in daylight at epoch
Visualization orbit readout
Latitude
Unknown
Longitude
Unknown
Altitude
Unknown
Speed
Unknown
Apparent Right ascension
Unknown
Apparent Declination
Unknown
Sunlit
N/A
Visualization observer readout
Local Sidereal Time
08:58:51
Azimuth
Unknown
Elevation
Unknown
Doppler factor
Unknown
Orbital elements
Apogee altitude
998.233 km
Perigee altitude
990.446 km
Semi-major axis
7,372.476 km
Eccentricity
0.00053
Inclination
144.2328°
RAAN
29.8174°
Arg. of periapsis
0.8883°
True anomaly
30.08703°
Mean anomaly
30.0567°
Eccentric anomaly
30.07186°
Mean motion
3.42865 °/min
Orbital period
105 mins
BSTAR
0.00015155
Loading maneuver chart data...
Computing Atmospheric mass density...
Loading historical data...
Loading historical data...
Loading historical data...
Loading historical data...
Loading historical data...
Loading historical data...
Loading historical data...

Documentation

Showing up to 5 results
|